Flag for Germany Weather past 2 weeks in Augsburg, Bavaria, Germany

Now
48 °F

Passing clouds.


Feels Like: 44 °F
Forecast: 29 / 47 °F
Wind: 10 mph from East

Location: Augsburg Airport


UV Index: 3 (Moderate)

Visibility: N/A


Pressure: 30.24 "Hg

Humidity: 34%

Dew point: 21 °F

Location of AugsburgLocation

Historic Weather in Augsburg

°F

Augsburg temperature yesterday

Maximum temperature yesterday: 48 °F (at 1:20 PM)
Minimum temperature yesterday: 28 °F (at 6:20 AM)
Average temperature yesterday: 43 °F

Past Weeks' High & Low Weather Summary

 TemperatureHumidityPressure
High70 °F (Apr 2, 2:50 PM)100% (Apr 5, 6:50 AM)30.36 "Hg (Apr 5, 6:50 AM)
Low28 °F (Apr 16, 6:20 AM)27% (Apr 2, 5:50 PM)29.68 "Hg (Apr 3, 2:50 PM)
Average53 °F60%30.04 "Hg
* Reported Apr 2 10:20 AM — Apr 17 10:50 AM, Augsburg, Weather by CustomWeather, © 2014

Note: Actual official high and low records may vary slightly from our data, if they occured in-between our weather recording intervals... More about our weather records

Advertising

Historic Weather Conditions — Data for Previous 24 hours

 ConditionsComfort  
Time TempWeatherWind HumidityBarometerVisibility
10:50 AM
Apr 17
46 °FPassing clouds.13 mph40%30.27 "HgN/A
10:20 AM46 °FPassing clouds.10 mph43%30.27 "HgN/A
9:50 AM45 °FSunny.13 mph46%30.27 "Hg10 mi
9:20 AM43 °FSunny.10 mph53%30.27 "Hg10 mi
8:50 AM41 °FSunny.10 mph57%30.27 "Hg10 mi
8:20 AM37 °FSunny.10 mph65%30.27 "Hg10 mi
7:50 AM36 °FSunny.9 mph65%30.27 "Hg10 mi
7:20 AM36 °FClear.7 mph70%30.27 "Hg10 mi
6:50 AM34 °FClear.1 mph75%30.27 "Hg10 mi
6:20 AM30 °FClear.2 mph93%30.27 "Hg10 mi
8:50 PM
Apr 16
45 °FScattered clouds.5 mph53%30.33 "HgN/A
8:20 PM45 °FScattered clouds.3 mph57%30.33 "HgN/A
7:50 PM45 °FPassing clouds.3 mph53%30.33 "HgN/A
7:20 PM48 °FPassing clouds.6 mph46%30.33 "HgN/A
6:50 PM48 °FSunny.7 mph46%30.33 "Hg10 mi
6:20 PM48 °FPassing clouds.8 mph43%30.33 "HgN/A
5:50 PM48 °FScattered clouds.7 mph46%30.33 "HgN/A
5:20 PM48 °FBroken clouds.10 mph50%30.33 "HgN/A
4:50 PM48 °FBroken clouds.7 mph50%30.33 "HgN/A
4:20 PM48 °FBroken clouds.2 mph46%30.33 "HgN/A
3:50 PM48 °FBroken clouds.5 mph50%30.33 "HgN/A
3:20 PM48 °FBroken clouds.5 mph50%30.33 "HgN/A
2:50 PM46 °FBroken clouds.6 mph50%30.36 "HgN/A
2:20 PM46 °FBroken clouds.8 mph50%30.36 "HgN/A
1:50 PM46 °FBroken clouds.6 mph50%30.36 "HgN/A
1:20 PM48 °FScattered clouds.3 mph54%30.36 "HgN/A
12:50 PM45 °FScattered clouds.6 mph57%30.36 "HgN/A
Weather by CustomWeather, © 2014

See weather overview